User: anonymous   Login
Location: Ariel
(45.9570°N, 122.5700°W)
Time: 13:14:06
(UTC-07:00)
Language:

A-11 Canister half - Orbit

View from above orbital plane
View from above orbital plane
View from above satellite
View from above satellite

Ground track
Ground track

The orbit data is extracted from the following two-line orbital elements,

1    53U 60009E   19202.83068821 -.00000107  00000-0 -22283-3 0  9993
2    53  47.2733 201.6400 0098400 182.6398 177.3881 12.17228411628175
Epoch (UTC): 21 July 2019 19:56:11
Eccentricity: 0.0098400
inclination: 47.2733°
perigee height: 1526 km
apogee height: 1683 km
right ascension of ascending node: 201.6400°
argument of perigee: 182.6398°
revolutions per day: 12.17228411
mean anomaly at epoch: 177.3881°
orbit number at epoch: 62817

The dashed part of the orbit path shows where the satellite is in the earth's shadow,  

DLR